This is the latest recevied weather packets stored in our database for station/object KI7CSN-13. If no packets are shown the sender has not sent any weather packets the latest 1 day(s).
| Time | Temp. | Humidity | Pressure | Rain* | Wind** | Luminosity | Snow |
|---|---|---|---|---|---|---|---|
| 1777975361 | 8.89° C | 62% | 978.9 hPa | 0 mm | 0 m/s | - | - |
| 1777975061 | 8.89° C | 62% | 978.8 hPa | 0 mm | 0 m/s | - | - |
| 1777974761 | 8.89° C | 64% | 978.8 hPa | 0 mm | 1.34 m/s, 36° | - | - |
| 1777974461 | 8.33° C | 65% | 978.7 hPa | 0 mm | 0 m/s | - | - |
| 1777974161 | 8.33° C | 64% | 978.8 hPa | 0 mm | 0 m/s | - | - |
| 1777973861 | 8.33° C | 64% | 978.8 hPa | 0 mm | 0 m/s | - | - |
| 1777973561 | 8.33° C | 63% | 978.9 hPa | 0 mm | 0 m/s | - | - |
| 1777973261 | 8.33° C | 62% | 978.9 hPa | 0 mm | 0 m/s | - | - |
| 1777972961 | 8.89° C | 62% | 978.9 hPa | 0 mm | 0 m/s | - | - |
| 1777972661 | 8.89° C | 61% | 979 hPa | 0 mm | 0.45 m/s, 151° | - | - |
| 1777972361 | 9.44° C | 59% | 979.1 hPa | 0 mm | 0.89 m/s, 168° | - | - |
| 1777972061 | 9.44° C | 58% | 979.1 hPa | 0 mm | 0 m/s | - | - |
| 1777971761 | 10° C | 57% | 979.3 hPa | 0 mm | 1.34 m/s, 192° | - | - |
| 1777971461 | 10.56° C | 57% | 979.1 hPa | 0 mm | 1.34 m/s, 307° | - | - |
| 1777971161 | 10.56° C | 57% | 979.1 hPa | 0 mm | 0 m/s | - | - |
| 1777970861 | 10.56° C | 56% | 979.3 hPa | 0 mm | 1.34 m/s, 358° | - | - |
| 1777970561 | 10° C | 56% | 979.3 hPa | 0 mm | 1.79 m/s, 310° | - | - |
| 1777970261 | 10.56° C | 55% | 979.3 hPa | 0 mm | 0 m/s | - | - |
| 1777969961 | 10.56° C | 54% | 979.3 hPa | 0 mm | 0 m/s | - | - |
| 1777969661 | 10.56° C | 53% | 979.1 hPa | 0 mm | 0 m/s | - | - |
| 1777969361 | 10.56° C | 53% | 979.3 hPa | 0 mm | 0 m/s | - | - |
| 1777969061 | 11.11° C | 53% | 979.4 hPa | 0 mm | 0 m/s | - | - |
| 1777968761 | 11.11° C | 52% | 979.5 hPa | 0 mm | 2.68 m/s, 108° | - | - |
| 1777968461 | 11.11° C | 51% | 979.6 hPa | 0 mm | 0.45 m/s, 168° | - | - |
| 1777968161 | 10.56° C | 51% | 979.7 hPa | 0 mm | 0 m/s | - | - |
* Rain latest hour (hover to see other rain measurements)
** Current wind speed in m/s (hover to see current wind gust speed)